Hourly Data Report for December 17, 2019

MUSKOKA
ONTARIO
Current Station Operator: NAVCAN

44°58'29.000" N
79°18'12.000" W
281.90 m
6115529
71532
YQA

Download Data

Hourly Data (December 2019)
Hourly Data Report for December 17, 2019
TIME
LST
Temp Definition
°C
Dew Point Definition
°C
Rel Hum Definition
%
Precip. Amount Definition
mm

Wind Dir Definition
10's deg

Wind Spd Definition
km/h
Visibility Definition
km
Stn Press Definition
kPa
Hmdx Definition


Wind Chill Definition


Weather Definition


00:00 -3.7 -5.7 86 0.0 20 9 16.1 98.33   -7 LegendNANA
01:00 -4.1 -5.7 89 0.0 17 9 16.1 98.28   -8 LegendNANA
02:00 -4.0 -5.7 88 0.0 16 8 16.1 98.24   -7 LegendNANA
03:00 -4.2 -5.6 90 0.0 14 4 16.1 98.21   -6 LegendNANA
04:00 -4.3 -5.4 92 0.0 LegendMM 4 14.5 98.09   -6 LegendNANA
05:00 -4.3 -5.6 91 0.0 14 5 12.9 98.02   -6 LegendNANA
06:00 -4.3 -5.4 92 0.0   0 11.3 97.98     LegendNANA
07:00 -4.4 -5.2 94 0.0 LegendMM 4 9.7 97.94   -6 Fog
08:00 -4.4 -5.2 94 0.0 12 4 8.1 97.88   -6 Fog
09:00 -4.1 -5.1 93 0.0 14 5 6.4 97.84   -6 Snow
10:00 -3.9 -4.9 93 0.0 15 13 4.8 97.84   -9 Snow
11:00 -3.6 -5.3 88 0.0 18 5 14.5 97.77   -6 Snow
12:00 -3.2 -4.8 89 0.0 17 5 12.9 97.64   -5 LegendNANA
13:00 -2.7 -4.1 90 0.0 22 5 4.8 97.57   -5 Snow
14:00 -2.8 -4.2 90 0.0 29 8 16.1 97.53   -6 LegendNANA
15:00 -2.9 -4.2 91 0.0 31 9 16.1 97.53   -6 Snow
16:00 -3.8 -5.7 87 0.0 33 11 16.1 97.55   -8 Snow
17:00 -5.1 -5.8 95 0.0   0 16.1 97.56     Snow
18:00 -5.8 -6.5 95 0.0 18 4 16.1 97.57   -8 Snow
19:00 -5.4 -6.0 96 0.0 19 8 16.1 97.56   -9 Snow
20:00 -4.9 -5.9 93 0.0 21 13 16.1 97.51   -10 Snow
21:00 -4.5 -5.8 91 0.0 21 11 8.1 97.43   -9 Snow
22:00 -4.6 -5.9 91 0.0 19 18 11.3 97.33   -11 Snow
23:00 -4.4 -5.4 93 0.5 21 13 1.2 97.32   -9 Snow

Notes on Data Quality.

Legend

  • E = Estimated
  • M = Missing
  • NA = Not Available*
  • [empty] = Indicates an unobserved value
Date modified: